FENGYUN 1C DEB, 35243

Orbit data source: Space-Track

FENGYUN 1C DEB, 35243 is space debris in SSO originally from a launch on Mon, 10 May 1999 UTC launched from the Taiyaun Space Center, China (TSC). Fengyun 1C debris stems from the Chinese weather satellite Fengyun-1C, which was intentionally destroyed by a Chinese anti-satellite missile in 2007. This event dramatically increased the amount of space debris, with thousands of trackable fragments posing hazards to satellites and human spaceflight. The Fengyun 1C debris cloud has become a focal point in discussions about space sustainability and the need for international regulations to prevent the creation of new debris.

Loading next visibility...
Identifier
35243, 1999-025DRB
Orbit
SSO
Country
Flag of CNCN / PRC
Related business
Manufacturer
Unknown
Mission
Spacecraft
Bus & Motor
Unknown
Mass
Unknown
Launch date (UTC)
1999-05-10 (27 years ago)
Launch vehicle
Unknown
Launch site
Taiyaun Space Center, China (TSC)
Object type
Payload
Rocket body
Debris
Shape & HBR
Unknown shape, 0.1 m
Radar Cross Section
Medium (>0.1 m² and <1 m²)

Expand to show TLE details & history
Last TLE update: 2 days ago

TLE from 2 days ago
0 FENGYUN 1C DEB
1 35243U 99025DRB 26235.27439087  .00022434  00000-0  18593-2 0  9993
2 35243  98.8744 351.2638 0054619 158.7605 201.5899 14.97678138947833
Epoch: 2026-08-23T06:35Z
TLE epoch observation values (Epoch: 2026-08-23T06:35:07.371Z)
Latitude
0.00006°
Longitude
-79.08972°
Altitude
612.431 km
Speed
7.534 km/s
True Right ascension
23h 25m 03s
True Declination
0° 00' 00"
Sunlit
Object was in full shadow at epoch
Visualization orbit readout
Latitude
Unknown
Longitude
Unknown
Altitude
Unknown
Speed
Unknown
Apparent Right ascension
Unknown
Apparent Declination
Unknown
Sunlit
N/A
Visualization observer readout
Local Sidereal Time
18:43:12
Azimuth
Unknown
Elevation
Unknown
Doppler factor
Unknown
Orbital elements
Apogee altitude
609.092 km
Perigee altitude
533.18 km
Semi-major axis
6,949.273 km
Eccentricity
0.00546
Inclination
98.8744°
RAAN
351.2638°
Arg. of periapsis
158.7605°
True anomaly
201.36105°
Mean anomaly
201.5899°
Eccentric anomaly
201.47533°
Mean motion
3.74657 °/min
Orbital period
96.09 mins
BSTAR
0.0018593
Loading maneuver chart data...
Computing Atmospheric mass density...
Loading historical data...
Loading historical data...
Loading historical data...
Loading historical data...
Loading historical data...
Loading historical data...
Loading historical data...

Documentation

Showing up to 5 results
|